Wind_Speed
3 1 0 1 3 5 6 8 9 9 12 17 19 21 22 21 19 16 14 13 14 14 15 17 19 21 23 24 25 27 29 30 32 34 35 37 38 40 40 41 41 41 42 41
5 5 2 1 3 5 6 7 8 7 7 11 15 19 18 19 16 13 12 11 11 11 13 15 18 19 21 22 24 26 28 30 32 34 36 37 39 40 41 41 42 42 42 41
7 6 2 1 3 4 7 9 9 9 10 12 14 16 16 17 14 10 9 9 8 10 12 14 16 18 19 21 23 25 27 30 32 34 36 37 39 40 40 41 41 41 41 41
8 6 4 4 5 5 8 10 10 11 13 15 17 15 13 11 5 5 5 5 5 7 10 12 15 17 19 20 22 24 26 29 31 33 35 37 38 38 39 39 39 39 39 39
8 7 5 5 6 7 8 9 9 10 12 14 14 13 10 7 5 2 1 2 5 8 10 12 14 17 18 20 22 24 25 27 29 30 32 34 36 37 38 38 39 39 38 38
7 7 7 7 7 8 8 7 8 10 11 13 14 12 10 8 7 7 6 7 9 11 12 15 17 19 21 22 25 26 27 28 29 31 32 33 34 35 36 37 37 37 37 37
6 6 7 7 6 6 7 7 7 8 10 12 13 12 12 10 8 8 9 11 13 15 17 19 21 23 25 27 29 30 32 32 33 33 34 35 35 35 35 36 37 37 37 37
5 5 5 6 6 6 6 7 8 8 9 9 10 10 11 12 10 9 12 14 16 19 21 23 26 28 30 31 33 34 35 35 35 35 36 36 36 36 36 37 37 38 37 37
6 5 5 5 6 6 6 8 9 9 9 9 9 9 11 12 11 12 15 17 20 22 25 27 29 31 33 34 36 37 37 37 37 37 37 37 37 38 38 38 39 38 38 38
8 7 6 7 7 8 8 9 9 8 9 10 10 11 13 14 15 16 18 21 23 25 27 29 31 33 35 36 38 39 39 39 39 38 38 38 38 39 39 39 39 39 39 39
7 6 6 7 8 8 8 9 10 10 11 12 14 15 15 16 17 19 21 24 26 27 29 30 32 34 36 38 39 40 40 40 39 39 39 39 39 39 39 39 39 39 39 39
6 6 7 7 7 7 8 9 10 11 12 14 16 17 18 19 20 22 24 26 27 28 29 31 33 35 37 39 40 40 40 40 40 40 40 40 40 40 40 39 39 39 39 39
7 8 8 8 8 7 8 10 11 12 14 16 18 19 20 21 23 24 25 26 27 28 29 32 34 36 38 39 40 40 40 41 41 40 40 40 40 40 40 40 39 40 39 39
7 8 8 10 11 10 9 10 12 13 14 16 18 19 20 22 23 24 25 27 28 29 31 34 36 37 38 39 40 40 41 41 41 41 41 41 41 41 40 40 40 40 40 40
6 7 8 10 11 11 11 12 14 15 16 17 18 19 21 22 23 25 26 28 29 31 33 35 36 37 39 40 41 41 41 42 42 42 42 42 42 41 41 41 40 40 39 40
5 6 7 9 11 12 12 13 15 17 18 18 19 22 23 23 24 25 27 28 30 31 34 36 37 39 40 41 41 42 42 43 43 43 43 43 42 42 41 41 40 40 40 40
6 6 7 9 11 11 12 13 14 16 17 19 20 22 23 24 25 25 27 28 30 32 34 37 39 40 40 41 42 42 43 44 44 44 44 43 43 42 41 41 40 40 40 40
7 7 9 11 11 12 11 12 14 16 18 19 20 22 24 25 25 25 27 29 31 33 35 38 39 40 41 41 42 43 43 44 45 45 45 44 43 42 41 41 40 40 40 40
7 8 11 13 13 12 13 13 15 18 19 20 22 24 25 26 26 26 28 30 32 34 36 38 40 40 41 41 42 43 44 45 45 45 45 45 44 42 41 41 41 41 41 40
9 11 13 14 13 12 11 14 17 19 20 21 23 24 25 27 27 28 30 32 34 36 37 39 40 40 41 41 42 43 44 45 46 45 45 45 44 42 41 41 41 41 40 39
13 14 16 16 16 16 16 18 20 22 23 23 23 24 25 26 27 29 30 32 34 37 38 39 40 40 41 41 42 43 44 45 46 46 45 45 44 43 42 41 41 41 40 39
19 20 21 21 22 22 22 23 23 23 23 23 23 23 24 26 27 29 31 33 35 37 38 39 40 40 41 41 42 44 44 46 46 47 46 45 44 43 42 41 41 41 40 38
22 24 25 24 24 24 24 25 24 24 23 23 23 23 25 27 29 30 33 35 36 38 39 39 40 40 41 41 42 44 45 46 46 47 46 45 44 42 42 41 40 40 39 37
23 26 27 27 27 26 25 25 25 24 23 23 23 24 26 28 30 32 34 36 38 39 39 39 40 40 41 41 42 44 45 46 46 46 45 44 43 42 41 41 40 40 39 36
21 25 27 27 27 26 25 25 25 25 25 25 25 25 27 30 32 34 36 38 39 39 39 39 39 40 40 41 42 44 45 45 46 46 45 44 43 41 41 40 40 39 38 36
21 25 27 28 27 27 26 27 27 27 27 27 28 28 29 31 34 36 38 39 39 39 39 39 40 40 41 42 43 44 45 46 46 45 45 43 42 41 40 39 39 38 37 35
Wind_Direction
44 68 11 220 225 244 256 258 259 252 246 244 250 252 258 255 260 260 269 278 281 285 288 290 292 292 293 294 295 294 294 293 292 291 290 290 290 291 291 291 291 290 289 288
17 5 344 312 327 300 293 295 291 283 275 275 270 266 270 272 267 265 266 274 280 289 294 297 298 297 298 299 299 299 297 296 294 293 293 293 292 292 292 291 290 289 288 287
6 2 360 346 359 341 339 333 322 316 314 313 306 302 300 295 271 257 263 277 283 293 300 302 302 302 303 303 303 302 300 298 297 296 295 294 294 293 292 291 291 290 288 286
6 9 9 17 25 3 359 355 345 338 336 339 335 333 325 320 298 256 255 280 302 310 311 311 311 311 310 310 308 306 304 301 299 298 297 297 296 295 294 293 292 291 290 288
12 11 16 25 14 7 6 2 351 345 346 347 349 354 7 23 50 67 22 345 341 335 328 323 320 317 315 313 312 310 308 305 302 300 299 298 297 296 295 294 293 292 290 288
13 13 19 22 4 355 355 354 351 353 352 354 1 12 26 41 46 46 30 9 355 345 337 332 328 325 323 321 319 318 317 314 311 308 306 303 301 299 298 296 295 294 293 290
22 30 21 17 11 355 346 345 344 350 356 6 18 37 38 38 33 25 10 359 352 347 342 338 335 333 331 329 327 325 323 321 318 315 312 310 307 305 302 300 298 296 294 291
8 19 12 16 15 2 345 339 339 341 347 359 14 27 19 17 15 8 358 353 349 347 344 341 338 336 333 331 329 328 326 323 321 318 316 313 310 307 305 303 300 297 294 291
356 353 346 355 5 359 343 337 339 339 339 336 344 355 352 3 6 1 354 349 348 346 343 340 337 335 333 331 329 327 325 323 321 319 317 314 311 308 306 304 301 298 295 291
340 333 323 326 332 339 340 343 340 337 333 333 336 341 349 359 359 354 349 347 346 343 340 337 335 333 332 330 328 327 325 324 322 320 317 314 312 309 307 304 301 298 295 292
334 330 321 314 316 319 327 333 337 341 338 333 333 341 353 359 356 350 347 345 342 339 336 334 333 331 330 329 328 327 326 325 323 321 319 316 314 311 308 305 302 299 296 293
327 318 311 309 317 328 334 338 341 341 338 334 334 340 350 354 351 347 344 340 336 334 332 331 330 330 329 329 328 327 327 326 325 323 321 318 316 314 311 308 305 302 299 296
321 315 309 305 310 319 331 335 333 336 337 335 335 340 347 349 346 342 337 333 331 330 329 329 329 329 328 328 329 329 329 328 327 325 324 322 320 317 314 311 308 305 302 298
322 317 311 305 305 309 310 314 319 326 330 331 335 340 343 342 339 336 332 329 328 328 328 328 328 327 328 329 330 331 330 330 329 328 326 324 322 320 317 314 311 308 305 301
318 316 311 306 304 303 301 303 308 316 320 324 331 337 337 335 333 331 329 328 327 327 327 327 326 327 329 330 331 332 332 331 331 330 328 326 324 321 319 316 313 311 308 305
305 315 310 306 302 301 300 301 302 309 314 322 330 332 329 328 327 328 327 325 325 325 325 325 326 328 329 331 331 332 332 332 332 331 330 328 326 323 321 318 316 313 310 307
298 316 324 318 308 306 296 296 300 307 315 323 326 325 322 321 323 324 323 322 323 325 325 326 328 329 330 331 332 332 333 333 333 333 332 329 327 325 323 321 319 316 314 311
301 319 325 322 317 312 307 301 303 306 314 321 320 318 318 318 319 321 322 323 324 325 326 327 329 330 331 332 333 333 334 334 334 334 333 331 329 327 325 323 322 320 318 315
297 318 323 322 318 316 317 311 308 310 317 320 319 318 318 318 320 323 324 324 324 325 327 328 330 331 331 333 333 334 334 335 335 335 334 332 331 329 327 326 325 323 322 319
290 305 316 319 321 322 324 314 313 315 319 320 320 320 319 320 322 323 323 323 324 326 327 328 329 330 331 333 334 334 335 336 336 335 334 334 332 331 330 329 328 327 325 323
305 309 315 320 322 323 322 318 319 321 321 320 320 319 318 317 319 321 321 322 324 326 327 328 329 330 331 332 333 334 336 337 337 337 336 335 334 333 332 331 331 330 329 326
299 305 311 315 316 316 317 318 320 320 319 318 316 315 314 316 318 319 321 322 324 325 326 327 328 329 330 331 333 334 336 337 337 338 337 336 335 334 334 333 333 333 332 330
288 295 300 303 306 310 314 316 316 316 315 314 313 314 314 315 317 319 321 322 323 325 326 327 328 328 329 331 332 334 336 337 338 338 338 337 336 336 336 336 335 336 335 333
283 290 293 298 302 307 310 311 311 312 312 312 312 313 313 314 316 318 320 321 323 324 325 326 327 328 330 331 332 334 336 337 338 338 338 338 338 338 338 338 338 338 338 337
283 284 288 293 299 303 306 306 306 308 309 310 310 311 313 314 316 317 319 320 322 323 325 326 327 328 330 332 333 334 336 337 338 339 338 338 339 339 340 340 340 341 340 340
283 283 287 292 298 300 302 302 302 305 307 308 309 310 312 313 314 315 317 319 322 323 324 326 328 329 330 331 332 334 335 337 338 339 339 339 339 340 341 342 342 342 342 343
Height
5875 5875 5874 5873 5873 5873 5873 5873 5872 5872 5871 5871 5870 5869 5869 5869 5870 5871 5871 5870 5870 5869 5867 5866 5864 5862 5860 5858 5856 5853 5851 5848 5845 5843 5840 5837 5834 5831 5828 5825 5823 5820 5818 5816
5876 5874 5873 5872 5872 5871 5871 5871 5871 5869 5869 5869 5867 5866 5864 5864 5864 5867 5867 5867 5866 5865 5864 5862 5860 5858 5856 5854 5851 5848 5845 5841 5838 5835 5831 5828 5825 5822 5819 5816 5813 5810 5808 5805
5875 5874 5872 5871 5871 5870 5869 5869 5868 5868 5868 5867 5865 5862 5861 5860 5859 5862 5864 5863 5863 5862 5861 5859 5857 5855 5852 5849 5846 5843 5839 5835 5831 5827 5823 5819 5816 5812 5809 5806 5803 5799 5797 5794
5875 5874 5873 5871 5871 5870 5870 5868 5867 5867 5867 5865 5863 5860 5859 5857 5857 5859 5861 5861 5860 5859 5858 5856 5853 5851 5848 5845 5841 5838 5833 5829 5824 5820 5815 5811 5807 5803 5799 5795 5792 5789 5786 5783
5875 5874 5873 5872 5871 5870 5869 5868 5868 5867 5865 5864 5862 5861 5860 5857 5857 5858 5859 5859 5858 5856 5854 5852 5850 5847 5844 5840 5836 5832 5828 5823 5818 5813 5808 5803 5798 5794 5790 5785 5782 5779 5776 5772
5875 5874 5873 5872 5870 5869 5868 5868 5867 5866 5865 5864 5862 5861 5859 5858 5858 5858 5857 5856 5854 5852 5850 5848 5845 5842 5838 5834 5829 5825 5820 5815 5810 5805 5799 5794 5790 5785 5780 5776 5772 5768 5765 5762
5875 5874 5872 5871 5870 5870 5868 5868 5867 5866 5864 5863 5862 5860 5860 5858 5857 5857 5855 5853 5851 5848 5846 5843 5839 5835 5831 5826 5822 5816 5811 5806 5801 5795 5790 5785 5780 5775 5771 5766 5762 5758 5755 5752
5875 5874 5872 5871 5870 5869 5868 5867 5867 5865 5863 5862 5861 5860 5860 5858 5856 5854 5852 5850 5847 5844 5841 5837 5833 5829 5824 5819 5814 5809 5804 5798 5792 5787 5781 5776 5771 5766 5761 5757 5752 5748 5744 5741
5874 5873 5872 5871 5870 5869 5868 5866 5865 5864 5862 5861 5859 5859 5858 5856 5854 5851 5849 5846 5843 5839 5836 5832 5828 5823 5819 5813 5808 5802 5797 5791 5785 5779 5773 5767 5762 5757 5752 5747 5742 5738 5734 5730
5873 5872 5871 5870 5869 5868 5867 5866 5865 5863 5860 5858 5857 5856 5855 5853 5851 5848 5845 5841 5838 5835 5831 5827 5823 5818 5813 5808 5802 5796 5790 5784 5777 5771 5765 5759 5753 5748 5742 5737 5732 5727 5723 5719
5872 5871 5870 5869 5868 5867 5866 5865 5862 5860 5858 5856 5854 5855 5852 5850 5847 5844 5840 5837 5834 5831 5827 5823 5819 5814 5809 5803 5796 5790 5783 5776 5770 5763 5757 5751 5744 5738 5732 5727 5721 5716 5712 5708
5870 5869 5868 5867 5866 5864 5863 5862 5860 5859 5857 5854 5852 5854 5849 5846 5843 5840 5837 5834 5831 5828 5824 5820 5815 5810 5804 5797 5790 5783 5776 5769 5762 5756 5749 5742 5735 5729 5722 5716 5710 5705 5700 5696
5868 5868 5867 5866 5866 5864 5861 5859 5858 5856 5855 5852 5850 5851 5845 5842 5840 5837 5835 5832 5828 5825 5821 5816 5811 5805 5799 5792 5785 5777 5770 5763 5755 5748 5740 5733 5726 5719 5712 5706 5700 5694 5689 5684
5867 5866 5865 5864 5862 5860 5859 5857 5855 5854 5852 5850 5848 5846 5843 5840 5838 5835 5832 5828 5825 5820 5816 5811 5805 5800 5793 5786 5778 5771 5763 5755 5748 5740 5732 5725 5717 5710 5703 5696 5689 5683 5677 5672
5865 5864 5862 5860 5859 5857 5856 5855 5853 5851 5850 5848 5846 5843 5841 5838 5835 5832 5828 5824 5820 5816 5811 5806 5800 5794 5787 5780 5772 5764 5756 5748 5740 5732 5724 5716 5709 5701 5693 5686 5679 5672 5666 5660
5861 5861 5860 5858 5856 5855 5854 5853 5851 5849 5847 5845 5843 5841 5838 5836 5833 5829 5825 5821 5816 5812 5807 5801 5795 5788 5781 5773 5765 5758 5750 5742 5733 5725 5716 5708 5700 5692 5684 5677 5669 5662 5655 5648
5858 5857 5857 5855 5854 5853 5852 5850 5848 5846 5844 5843 5841 5839 5835 5832 5829 5826 5821 5817 5812 5807 5802 5795 5789 5781 5774 5766 5759 5751 5743 5734 5726 5717 5708 5700 5692 5683 5675 5667 5659 5652 5644 5637
5855 5854 5853 5852 5852 5850 5851 5847 5845 5843 5842 5840 5837 5834 5831 5828 5825 5822 5817 5812 5807 5802 5796 5789 5782 5775 5767 5760 5752 5744 5736 5727 5719 5710 5701 5692 5683 5675 5666 5658 5650 5642 5634 5626
5853 5852 5850 5849 5847 5846 5846 5844 5842 5840 5838 5836 5833 5829 5825 5822 5819 5816 5811 5807 5802 5796 5790 5783 5776 5769 5761 5753 5746 5737 5729 5720 5711 5702 5693 5684 5676 5667 5658 5649 5641 5632 5624 5615
5849 5849 5848 5846 5844 5843 5843 5840 5837 5836 5833 5831 5828 5824 5820 5816 5813 5810 5805 5801 5796 5790 5783 5777 5769 5762 5755 5747 5739 5731 5723 5714 5705 5695 5686 5677 5668 5659 5650 5641 5632 5623 5614 5605
5845 5844 5843 5842 5840 5839 5838 5835 5833 5832 5830 5826 5823 5819 5815 5812 5809 5805 5800 5795 5789 5784 5777 5770 5763 5756 5749 5741 5733 5725 5716 5707 5698 5688 5679 5669 5660 5651 5642 5633 5624 5615 5606 5597
5841 5840 5838 5837 5836 5836 5833 5830 5829 5827 5823 5820 5817 5814 5810 5806 5803 5798 5794 5789 5783 5778 5771 5764 5757 5749 5742 5734 5727 5718 5710 5701 5691 5682 5672 5662 5653 5644 5635 5625 5616 5607 5597 5588
5837 5836 5835 5834 5833 5830 5827 5825 5823 5820 5818 5815 5811 5808 5804 5801 5797 5792 5788 5783 5777 5771 5765 5758 5751 5743 5736 5728 5720 5712 5703 5694 5685 5675 5665 5656 5646 5637 5628 5619 5610 5600 5590 5581
5834 5831 5829 5827 5826 5824 5822 5819 5817 5814 5812 5809 5806 5803 5799 5795 5791 5787 5782 5776 5771 5764 5758 5751 5744 5737 5729 5722 5714 5706 5697 5688 5679 5669 5660 5650 5641 5631 5622 5613 5603 5594 5584 5575
5829 5826 5824 5822 5820 5818 5816 5813 5811 5808 5805 5803 5800 5797 5793 5789 5785 5780 5775 5769 5763 5757 5751 5744 5738 5730 5723 5715 5708 5699 5691 5682 5673 5663 5654 5644 5635 5626 5617 5608 5598 5589 5580 5570
5823 5820 5817 5815 5814 5811 5809 5806 5803 5801 5798 5796 5793 5790 5787 5783 5778 5773 5767 5762 5756 5750 5744 5738 5731 5724 5717 5709 5701 5693 5685 5676 5667 5658 5649 5640 5631 5621 5613 5603 5594 5584 5576 5567